QPF
0.01 0.01 0.01 0.01 0.01 0.01 0.01 0.01 0.02 0.01 0.00 0.00 0.00 0.00 0.01 0.05 0.02 0.00 0.00 0.00 0.02 0.00 0.00 0.00 0.00 0.00 0.00 0.00 0.02 0.02 0.01 0.00 0.00 0.00 0.00 0.00 0.00 0.00 0.00 0.00 0.00 0.00 0.00 0.00 0.01
0.01 0.00 0.00 0.01 0.02 0.02 0.02 0.01 0.02 0.03 0.01 0.00 0.00 0.01 0.02 0.05 0.01 0.00 0.00 0.00 0.05 0.11 0.00 0.00 0.00 0.00 0.01 0.02 0.02 0.01 0.00 0.00 0.00 0.00 0.00 0.00 0.00 0.00 0.00 0.00 0.00 0.00 0.00 0.00 0.00
0.00 0.00 0.02 0.04 0.04 0.05 0.06 0.04 0.03 0.04 0.02 0.00 0.00 0.01 0.05 0.06 0.02 0.00 0.00 0.00 0.01 0.11 0.05 0.00 0.00 0.01 0.02 0.02 0.01 0.00 0.00 0.00 0.00 0.01 0.00 0.00 0.00 0.00 0.00 0.00 0.00 0.00 0.00 0.00 0.00
0.00 0.02 0.04 0.04 0.04 0.09 0.09 0.06 0.02 0.02 0.01 0.00 0.01 0.02 0.05 0.09 0.02 0.00 0.00 0.00 0.00 0.09 0.10 0.01 0.00 0.01 0.01 0.00 0.00 0.00 0.00 0.00 0.01 0.01 0.00 0.00 0.00 0.00 0.00 0.00 0.00 0.00 0.00 0.00 0.00
0.01 0.03 0.03 0.02 0.02 0.07 0.11 0.04 0.01 0.01 0.00 0.01 0.01 0.08 0.04 0.04 0.01 0.00 0.00 0.00 0.03 0.15 0.04 0.01 0.00 0.00 0.00 0.00 0.00 0.00 0.00 0.00 0.00 0.00 0.00 0.00 0.00 0.00 0.00 0.00 0.00 0.00 0.00 0.00 0.00
0.01 0.02 0.01 0.01 0.03 0.08 0.03 0.00 0.00 0.00 0.00 0.01 0.02 0.02 0.03 0.01 0.00 0.00 0.00 0.02 0.04 0.18 0.06 0.00 0.00 0.00 0.00 0.00 0.00 0.00 0.00 0.00 0.00 0.00 0.00 0.00 0.00 0.00 0.00 0.00 0.00 0.00 0.00 0.00 0.00
0.02 0.01 0.00 0.02 0.03 0.03 0.00 0.00 0.00 0.00 0.00 0.00 0.00 0.00 0.01 0.00 0.02 0.04 0.01 0.04 0.08 0.12 0.07 0.00 0.00 0.00 0.00 0.01 0.00 0.00 0.00 0.00 0.00 0.00 0.00 0.00 0.00 0.00 0.00 0.00 0.00 0.00 0.00 0.00 0.00
0.01 0.01 0.00 0.01 0.02 0.00 0.00 0.00 0.00 0.00 0.01 0.03 0.00 0.01 0.01 0.00 0.01 0.01 0.01 0.03 0.05 0.13 0.06 0.01 0.00 0.00 0.02 0.01 0.00 0.00 0.00 0.00 0.00 0.00 0.00 0.00 0.00 0.00 0.00 0.00 0.00 0.00 0.00 0.00 0.00
0.01 0.01 0.00 0.01 0.01 0.00 0.00 0.00 0.00 0.00 0.00 0.01 0.02 0.04 0.01 0.01 0.00 0.00 0.00 0.01 0.05 0.11 0.11 0.00 0.02 0.01 0.03 0.02 0.02 0.02 0.00 0.00 0.00 0.00 0.00 0.00 0.00 0.00 0.00 0.00 0.00 0.00 0.00 0.00 0.00
0.01 0.00 0.00 0.00 0.01 0.00 0.00 0.00 0.00 0.00 0.00 0.00 0.04 0.02 0.02 0.03 0.01 0.00 0.00 0.01 0.03 0.09 0.13 0.13 0.04 0.02 0.01 0.01 0.01 0.00 0.00 0.00 0.00 0.00 0.00 0.00 0.00 0.00 0.00 0.00 0.00 0.00 0.00 0.00 0.00
0.00 0.00 0.00 0.00 0.00 0.00 0.00 0.00 0.00 0.01 0.01 0.01 0.01 0.01 0.02 0.00 0.03 0.03 0.02 0.03 0.06 0.07 0.03 0.04 0.00 0.00 0.00 0.00 0.00 0.00 0.00 0.00 0.00 0.00 0.00 0.00 0.00 0.00 0.00 0.00 0.00 0.00 0.00 0.00 0.00
0.00 0.00 0.00 0.00 0.00 0.00 0.00 0.00 0.00 0.00 0.00 0.00 0.00 0.00 0.00 0.00 0.04 0.02 0.04 0.05 0.07 0.03 0.01 0.01 0.00 0.00 0.00 0.00 0.00 0.00 0.00 0.00 0.00 0.00 0.00 0.00 0.00 0.00 0.00 0.00 0.00 0.00 0.00 0.00 0.00
0.00 0.00 0.00 0.00 0.00 0.00 0.00 0.00 0.00 0.00 0.00 0.00 0.00 0.00 0.00 0.00 0.01 0.04 0.06 0.03 0.03 0.02 0.00 0.00 0.00 0.00 0.00 0.00 0.00 0.00 0.00 0.00 0.00 0.00 0.00 0.00 0.00 0.00 0.00 0.00 0.00 0.00 0.00 0.00 0.00
0.00 0.00 0.00 0.00 0.00 0.00 0.00 0.00 0.00 0.00 0.00 0.00 0.00 0.00 0.00 0.00 0.02 0.04 0.04 0.03 0.02 0.02 0.01 0.01 0.00 0.00 0.00 0.00 0.00 0.00 0.00 0.00 0.00 0.00 0.00 0.00 0.00 0.00 0.00 0.00 0.00 0.00 0.00 0.00 0.00
0.00 0.00 0.00 0.00 0.00 0.00 0.00 0.00 0.00 0.00 0.00 0.00 0.00 0.01 0.01 0.00 0.01 0.00 0.01 0.01 0.00 0.00 0.00 0.00 0.00 0.00 0.00 0.00 0.00 0.00 0.00 0.00 0.00 0.00 0.00 0.00 0.00 0.00 0.00 0.00 0.00 0.00 0.00 0.00 0.00
0.00 0.00 0.00 0.00 0.00 0.00 0.00 0.00 0.00 0.00 0.00 0.00 0.00 0.00 0.01 0.01 0.01 0.00 0.01 0.00 0.00 0.00 0.00 0.00 0.00 0.00 0.00 0.01 0.01 0.01 0.00 0.00 0.00 0.00 0.00 0.00 0.00 0.00 0.00 0.00 0.00 0.00 0.00 0.00 0.00
0.00 0.00 0.00 0.00 0.00 0.00 0.00 0.00 0.00 0.00 0.00 0.00 0.00 0.00 0.00 0.00 0.00 0.00 0.01 0.00 0.00 0.00 0.00 0.00 0.00 0.00 0.00 0.00 0.01 0.01 0.00 0.00 0.00 0.00 0.00 0.00 0.00 0.00 0.00 0.00 0.00 0.00 0.00 0.00 0.00
0.00 0.00 0.00 0.00 0.00 0.00 0.00 0.00 0.00 0.00 0.00 0.00 0.00 0.00 0.00 0.00 0.00 0.00 0.01 0.00 0.00 0.00 0.00 0.00 0.00 0.00 0.00 0.00 0.00 0.00 0.00 0.00 0.00 0.00 0.00 0.00 0.00 0.00 0.00 0.00 0.00 0.00 0.00 0.00 0.00
0.00 0.00 0.00 0.00 0.00 0.00 0.00 0.00 0.00 0.00 0.00 0.00 0.00 0.00 0.00 0.00 0.00 0.00 0.00 0.00 0.00 0.00 0.00 0.00 0.00 0.00 0.00 0.00 0.00 0.00 0.00 0.00 0.00 0.00 0.00 0.00 0.00 0.00 0.00 0.00 0.00 0.00 0.00 0.00 0.00
0.00 0.00 0.00 0.00 0.00 0.00 0.00 0.00 0.00 0.00 0.00 0.00 0.00 0.00 0.00 0.00 0.00 0.00 0.00 0.00 0.00 0.00 0.00 0.00 0.00 0.00 0.00 0.00 0.00 0.00 0.00 0.00 0.00 0.00 0.00 0.00 0.00 0.00 0.00 0.00 0.00 0.00 0.00 0.00 0.00
0.00 0.00 0.00 0.00 0.00 0.00 0.00 0.00 0.00 0.00 0.00 0.00 0.00 0.00 0.00 0.00 0.00 0.00 0.00 0.00 0.00 0.00 0.00 0.00 0.00 0.00 0.00 0.00 0.00 0.00 0.00 0.00 0.00 0.00 0.00 0.00 0.00 0.00 0.00 0.00 0.00 0.00 0.00 0.00 0.00
0.00 0.00 0.00 0.00 0.00 0.00 0.00 0.00 0.00 0.00 0.00 0.00 0.00 0.00 0.00 0.00 0.00 0.00 0.00 0.00 0.00 0.00 0.00 0.00 0.00 0.00 0.00 0.00 0.00 0.00 0.00 0.00 0.00 0.00 0.00 0.00 0.00 0.00 0.00 0.00 0.00 0.00 0.00 0.00 0.00
0.00 0.00 0.00 0.00 0.00 0.00 0.00 0.00 0.00 0.00 0.00 0.00 0.00 0.00 0.00 0.00 0.00 0.00 0.00 0.00 0.00 0.00 0.00 0.00 0.00 0.00 0.00 0.00 0.00 0.00 0.00 0.00 0.00 0.00 0.00 0.00 0.00 0.00 0.00 0.00 0.00 0.00 0.00 0.00 0.00
0.00 0.00 0.00 0.00 0.00 0.00 0.00 0.00 0.00 0.00 0.00 0.00 0.00 0.00 0.00 0.00 0.00 0.00 0.00 0.00 0.00 0.00 0.00 0.00 0.00 0.00 0.00 0.00 0.00 0.00 0.00 0.00 0.00 0.00 0.00 0.00 0.00 0.00 0.00 0.00 0.00 0.00 0.00 0.00 0.00
0.00 0.00 0.00 0.00 0.00 0.00 0.00 0.00 0.00 0.00 0.00 0.00 0.00 0.00 0.00 0.00 0.00 0.00 0.00 0.00 0.00 0.00 0.00 0.00 0.00 0.00 0.00 0.00 0.00 0.00 0.00 0.00 0.00 0.00 0.00 0.00 0.00 0.00 0.00 0.00 0.00 0.00 0.00 0.00 0.00
0.00 0.00 0.00 0.00 0.00 0.00 0.00 0.00 0.00 0.00 0.00 0.00 0.00 0.00 0.00 0.00 0.00 0.00 0.00 0.00 0.00 0.00 0.00 0.00 0.00 0.00 0.00 0.00 0.00 0.00 0.00 0.00 0.00 0.00 0.00 0.00 0.00 0.00 0.00 0.00 0.00 0.00 0.00 0.00 0.00
0.00 0.00 0.00 0.00 0.00 0.00 0.00 0.00 0.00 0.00 0.00 0.00 0.00 0.00 0.00 0.00 0.00 0.00 0.00 0.00 0.00 0.00 0.00 0.00 0.00 0.00 0.00 0.00 0.00 0.00 0.00 0.00 0.00 0.00 0.00 0.00 0.00 0.00 0.00 0.00 0.00 0.00 0.00 0.00 0.00
MSLP
1017.57 1017.18 1016.91 1016.35 1016.04 1015.90 1015.70 1015.53 1015.55 1015.52 1015.22 1015.19 1015.13 1015.15 1015.16 1015.05 1015.08 1015.25 1015.20 1014.58 1014.17 1013.79 1013.71 1014.35 1014.83 1015.01 1015.28 1015.09 1014.95 1015.80 1016.86 1017.03 1017.15 1016.03 1013.94 1013.01 1012.43 1010.83 1010.38 1010.87 1011.33 1011.97 1012.53 1013.30 1013.75
1017.41 1016.82 1016.37 1015.97 1015.88 1015.63 1015.32 1015.18 1015.09 1015.13 1015.07 1014.89 1014.89 1015.00 1014.99 1014.92 1014.92 1014.56 1014.21 1013.85 1013.56 1013.65 1013.98 1014.24 1014.72 1015.12 1015.31 1014.94 1015.19 1015.90 1015.86 1015.41 1015.31 1015.17 1014.70 1014.43 1013.00 1012.10 1011.30 1011.44 1012.49 1012.97 1013.30 1013.63 1014.16
1017.15 1016.58 1016.03 1015.60 1015.23 1014.78 1014.73 1014.58 1014.72 1014.79 1014.81 1014.67 1014.66 1014.71 1014.81 1014.93 1014.77 1013.23 1013.01 1013.09 1013.05 1013.41 1013.68 1014.03 1014.64 1015.09 1015.19 1015.01 1015.07 1015.10 1015.15 1014.79 1015.24 1014.92 1015.80 1015.41 1013.67 1012.53 1012.09 1012.12 1012.29 1013.30 1013.51 1013.83 1014.33
1016.93 1016.36 1015.71 1015.12 1014.75 1014.24 1014.04 1014.14 1014.22 1014.40 1014.43 1014.42 1014.48 1014.57 1014.72 1014.92 1013.98 1011.79 1011.55 1011.22 1012.21 1013.02 1013.89 1013.99 1014.56 1015.03 1015.02 1014.81 1014.43 1014.57 1014.09 1014.45 1014.68 1014.74 1015.37 1015.05 1013.69 1012.57 1012.48 1012.78 1012.37 1012.39 1013.11 1013.57 1014.24
1016.69 1015.95 1015.42 1014.81 1014.35 1013.95 1013.68 1013.85 1013.90 1013.97 1014.15 1014.29 1014.31 1014.46 1014.75 1014.50 1012.88 1011.33 1011.10 1010.85 1011.78 1012.69 1013.31 1013.82 1014.19 1014.51 1014.47 1014.42 1014.55 1014.48 1013.98 1014.05 1014.30 1014.62 1014.71 1014.53 1013.47 1012.84 1012.82 1012.89 1012.39 1012.83 1013.24 1013.60 1013.93
1016.55 1015.84 1015.17 1014.44 1013.79 1013.78 1013.82 1013.79 1013.91 1014.00 1014.08 1014.17 1014.07 1014.37 1014.57 1013.79 1012.23 1011.82 1011.33 1011.22 1011.57 1012.51 1012.89 1013.26 1013.45 1013.84 1014.33 1014.31 1014.32 1013.94 1014.04 1014.24 1014.35 1014.39 1014.24 1014.03 1013.50 1013.18 1012.80 1012.79 1012.86 1013.03 1013.43 1013.44 1013.55
1016.52 1015.83 1015.10 1014.09 1013.51 1013.51 1013.86 1013.96 1014.04 1014.08 1014.09 1014.08 1014.07 1014.28 1014.11 1012.99 1011.73 1012.16 1011.47 1011.48 1011.61 1012.07 1012.36 1012.71 1012.95 1013.48 1013.57 1013.80 1013.81 1013.99 1014.23 1014.70 1015.01 1014.44 1014.08 1013.81 1014.08 1013.28 1013.00 1013.12 1013.29 1013.42 1013.54 1013.56 1013.57
1016.49 1015.90 1015.26 1014.38 1013.80 1013.81 1013.88 1014.01 1014.07 1013.99 1014.00 1014.09 1014.01 1014.11 1013.41 1011.74 1011.86 1012.35 1012.39 1012.17 1012.17 1012.04 1011.93 1012.43 1012.82 1013.39 1013.64 1013.52 1013.93 1014.41 1014.64 1015.29 1014.82 1014.52 1014.30 1014.12 1014.00 1013.67 1013.17 1013.55 1013.65 1013.82 1013.91 1013.79 1013.64
1016.43 1015.98 1015.51 1014.98 1014.29 1014.09 1014.04 1013.96 1013.83 1013.76 1013.77 1013.88 1014.08 1014.00 1012.85 1011.51 1011.67 1011.84 1012.16 1012.70 1012.60 1012.71 1012.59 1012.39 1013.21 1013.43 1014.09 1014.16 1014.55 1014.86 1015.08 1015.12 1014.70 1014.11 1014.20 1014.48 1014.41 1013.89 1013.59 1013.80 1014.02 1014.06 1014.11 1014.09 1013.92
1016.63 1016.14 1015.67 1015.26 1014.84 1014.54 1014.32 1013.98 1013.82 1013.98 1013.98 1013.96 1013.78 1014.16 1012.99 1012.48 1011.92 1011.73 1012.92 1013.61 1013.15 1012.55 1013.06 1012.99 1013.29 1013.79 1014.11 1014.42 1013.90 1014.06 1014.58 1014.61 1014.29 1014.12 1014.02 1014.51 1014.61 1014.09 1013.88 1013.86 1014.14 1014.22 1014.30 1014.29 1013.99
1016.68 1016.26 1015.72 1015.26 1015.10 1014.50 1014.16 1014.23 1014.47 1014.43 1014.08 1014.12 1013.90 1013.57 1013.15 1012.88 1011.87 1012.07 1012.59 1013.45 1013.09 1012.56 1012.52 1013.09 1013.45 1013.11 1013.67 1014.38 1014.31 1014.49 1014.77 1014.88 1014.63 1014.14 1014.35 1014.35 1014.67 1014.54 1014.12 1014.14 1014.28 1014.49 1014.39 1014.28 1014.11
1016.70 1016.09 1015.72 1015.38 1015.02 1014.53 1014.07 1014.62 1015.15 1015.37 1014.68 1013.72 1013.52 1013.20 1013.16 1013.48 1012.76 1012.10 1012.91 1012.43 1011.54 1012.37 1012.53 1013.67 1013.71 1013.86 1014.18 1014.40 1014.51 1014.47 1014.60 1014.69 1014.62 1014.34 1014.45 1014.63 1014.71 1014.67 1014.29 1014.21 1014.05 1014.17 1014.28 1014.27 1014.27
1016.51 1015.95 1015.51 1015.36 1014.84 1014.58 1014.61 1014.92 1014.88 1014.96 1014.79 1013.91 1013.77 1013.79 1013.90 1013.76 1013.76 1013.67 1013.55 1012.40 1012.10 1012.20 1013.03 1013.44 1013.69 1013.87 1014.06 1014.20 1014.45 1014.37 1014.40 1014.61 1014.78 1014.73 1014.94 1015.10 1015.28 1014.81 1014.23 1013.89 1013.80 1013.98 1014.08 1014.23 1014.32
1016.43 1015.93 1015.23 1015.02 1015.33 1014.87 1014.82 1014.73 1014.66 1014.86 1014.85 1014.27 1014.12 1014.09 1014.47 1013.63 1013.20 1013.24 1013.14 1012.90 1012.90 1012.90 1013.16 1013.91 1013.58 1013.97 1014.22 1014.24 1014.26 1014.17 1014.08 1014.38 1014.71 1015.52 1015.94 1015.76 1015.45 1014.76 1014.23 1013.97 1014.09 1014.18 1014.25 1014.42 1014.70
1016.23 1015.75 1015.25 1014.88 1015.37 1014.90 1014.79 1014.45 1014.53 1014.71 1014.58 1014.71 1014.63 1014.71 1014.48 1014.33 1013.90 1013.12 1013.41 1013.45 1013.00 1013.30 1013.60 1014.80 1014.62 1014.74 1014.68 1014.31 1014.52 1014.45 1014.29 1014.85 1015.52 1016.21 1016.41 1016.56 1016.77 1014.56 1014.18 1014.32 1014.22 1014.27 1014.52 1014.75 1014.93
1015.99 1015.38 1014.99 1014.85 1015.01 1014.77 1014.60 1014.33 1014.66 1015.37 1015.09 1014.70 1014.67 1014.48 1014.85 1014.67 1013.81 1013.87 1013.31 1012.93 1012.67 1013.74 1014.54 1015.61 1015.85 1015.85 1015.44 1015.10 1014.95 1014.80 1015.26 1016.02 1016.72 1017.22 1017.57 1016.73 1016.77 1014.80 1014.15 1013.41 1013.97 1014.40 1014.68 1014.79 1014.96
1015.38 1014.98 1014.82 1014.56 1014.78 1014.50 1014.47 1014.59 1014.83 1015.21 1015.02 1014.66 1013.96 1013.47 1013.57 1013.72 1013.76 1013.36 1013.11 1013.03 1013.13 1014.44 1015.67 1016.54 1016.99 1016.74 1016.34 1015.93 1015.75 1015.61 1016.07 1017.81 1018.67 1018.67 1017.89 1016.82 1016.65 1014.19 1013.14 1013.03 1013.27 1014.03 1014.62 1014.89 1015.01
1014.77 1014.37 1014.25 1014.33 1014.31 1014.46 1014.64 1014.97 1015.51 1015.45 1015.04 1014.03 1013.33 1013.03 1012.99 1013.33 1013.87 1013.76 1013.28 1013.38 1013.70 1014.26 1015.84 1016.56 1017.61 1017.35 1017.22 1016.77 1016.50 1016.25 1016.53 1017.41 1018.31 1018.63 1017.87 1017.01 1015.73 1013.61 1012.62 1012.37 1012.80 1013.43 1014.19 1014.81 1015.11
1014.35 1014.43 1014.10 1014.09 1014.17 1014.32 1014.90 1014.50 1015.51 1015.04 1014.29 1013.38 1012.50 1012.27 1012.27 1012.44 1012.98 1013.35 1013.44 1013.43 1013.35 1013.51 1014.77 1016.06 1017.27 1017.54 1017.36 1017.05 1016.78 1016.81 1016.80 1016.95 1017.82 1017.93 1017.90 1016.51 1015.13 1013.69 1013.05 1012.98 1013.23 1013.80 1014.41 1014.82 1015.18
1014.88 1014.97 1014.33 1013.75 1014.23 1014.67 1014.67 1014.60 1014.33 1013.89 1013.11 1012.44 1011.99 1011.47 1011.59 1011.83 1012.26 1012.59 1012.90 1012.89 1013.01 1013.13 1013.33 1014.97 1016.53 1017.39 1017.31 1017.21 1017.00 1016.66 1016.72 1017.25 1018.15 1018.63 1017.94 1016.45 1015.15 1013.72 1013.60 1013.56 1013.58 1014.02 1014.48 1014.79 1015.17
1015.23 1015.17 1014.83 1014.32 1014.48 1014.63 1014.97 1014.49 1013.50 1012.78 1012.33 1012.19 1011.69 1011.18 1011.10 1011.15 1011.35 1011.73 1012.35 1012.43 1012.40 1012.76 1013.04 1013.88 1015.30 1017.29 1017.38 1017.00 1016.56 1016.70 1016.69 1016.96 1017.48 1018.11 1017.80 1016.79 1014.71 1013.14 1012.89 1013.08 1013.47 1013.88 1014.26 1014.60 1015.05
1015.52 1015.40 1014.75 1014.74 1015.13 1014.65 1014.27 1013.74 1012.87 1012.24 1011.97 1011.74 1011.48 1011.26 1011.04 1010.90 1011.08 1011.52 1012.17 1012.20 1012.00 1012.27 1013.03 1013.64 1015.04 1016.50 1016.83 1016.39 1016.28 1016.25 1016.23 1016.58 1017.00 1017.59 1017.62 1016.93 1014.56 1012.89 1012.66 1013.07 1013.31 1013.74 1014.06 1014.46 1014.89
1016.40 1015.71 1014.95 1014.90 1015.07 1014.91 1013.78 1012.96 1012.52 1012.02 1011.64 1011.40 1011.35 1011.31 1011.15 1011.17 1011.46 1011.57 1012.11 1012.30 1012.20 1012.45 1012.93 1013.47 1014.84 1016.42 1017.04 1017.08 1016.49 1016.48 1016.22 1016.33 1016.72 1017.01 1016.96 1016.46 1014.69 1013.26 1012.95 1013.24 1013.34 1013.59 1013.96 1014.37 1014.95
1016.86 1016.78 1016.15 1015.40 1014.77 1014.62 1014.25 1013.13 1012.46 1012.01 1011.74 1011.49 1011.29 1011.24 1011.31 1011.41 1011.44 1011.93 1012.31 1012.50 1012.47 1012.68 1013.03 1013.39 1014.81 1015.67 1016.06 1015.57 1015.51 1015.94 1015.82 1016.07 1016.66 1017.30 1016.49 1015.72 1014.56 1013.84 1013.40 1013.26 1013.24 1013.45 1013.74 1014.32 1015.07
1017.62 1017.86 1017.85 1017.16 1015.79 1015.29 1014.44 1013.41 1012.63 1012.14 1011.99 1011.75 1011.53 1011.42 1011.51 1011.60 1011.77 1012.04 1012.40 1012.71 1012.81 1012.99 1013.34 1014.02 1015.43 1016.10 1016.06 1015.71 1015.72 1015.59 1015.48 1015.62 1015.89 1015.65 1015.58 1014.79 1014.24 1013.35 1012.94 1012.85 1012.98 1013.18 1013.73 1014.42 1015.15
1018.92 1019.07 1018.25 1017.71 1016.55 1015.58 1014.60 1014.05 1013.18 1012.39 1012.01 1011.91 1011.88 1011.55 1011.32 1011.65 1011.69 1011.79 1011.96 1012.43 1012.70 1013.30 1013.77 1014.63 1015.90 1016.50 1016.60 1016.18 1015.92 1015.78 1015.17 1014.96 1014.97 1014.93 1014.64 1014.32 1013.84 1012.48 1012.27 1012.52 1012.86 1013.24 1013.78 1014.43 1015.11
1019.70 1019.59 1018.90 1017.91 1016.88 1016.19 1015.52 1014.75 1014.11 1013.26 1012.39 1012.00 1011.98 1011.98 1011.63 1011.70 1011.54 1011.54 1011.71 1011.95 1012.10 1012.89 1013.88 1014.84 1016.03 1016.97 1017.32 1016.65 1016.22 1015.52 1013.62 1013.77 1013.78 1013.50 1013.42 1013.62 1012.49 1012.31 1012.23 1012.47 1012.89 1013.43 1013.83 1014.49 1015.26
Thickness
5523 5518 5512 5508 5500 5490 5481 5470 5459 5452 5452 5455 5462 5470 5478 5488 5501 5512 5524 5543 5557 5569 5575 5579 5583 5587 5590 5603 5615 5618 5595 5599 5609 5625 5656 5669 5667 5701 5716 5710 5717 5713 5718 5723 5729
5515 5512 5506 5497 5485 5473 5460 5448 5441 5439 5438 5440 5443 5448 5459 5469 5482 5504 5524 5535 5550 5558 5564 5570 5574 5578 5581 5596 5601 5595 5601 5619 5637 5641 5639 5649 5664 5677 5694 5696 5694 5697 5712 5721 5720
5509 5505 5497 5486 5474 5462 5445 5437 5434 5432 5432 5433 5435 5437 5442 5450 5463 5507 5509 5525 5542 5552 5559 5566 5566 5571 5574 5583 5591 5602 5606 5629 5626 5636 5628 5635 5657 5673 5677 5680 5691 5686 5699 5708 5710
5504 5497 5489 5476 5463 5450 5436 5431 5428 5427 5427 5427 5427 5425 5428 5433 5457 5490 5515 5534 5538 5545 5547 5556 5560 5560 5567 5576 5597 5595 5616 5619 5622 5627 5622 5633 5652 5666 5672 5676 5688 5697 5700 5704 5702
5500 5492 5481 5468 5453 5438 5431 5427 5424 5423 5422 5420 5419 5418 5417 5423 5456 5484 5505 5522 5528 5538 5545 5552 5556 5562 5568 5579 5586 5590 5607 5614 5616 5618 5622 5633 5645 5656 5663 5673 5688 5690 5695 5697 5698
5494 5486 5475 5462 5447 5430 5423 5421 5419 5418 5417 5416 5416 5413 5412 5420 5449 5463 5491 5512 5529 5536 5543 5552 5560 5566 5564 5572 5578 5597 5597 5599 5601 5612 5623 5630 5639 5652 5661 5669 5674 5680 5686 5695 5699
5491 5482 5470 5458 5443 5428 5420 5416 5414 5413 5412 5411 5411 5409 5413 5425 5448 5460 5483 5505 5527 5535 5538 5553 5559 5561 5569 5570 5585 5587 5578 5583 5592 5606 5619 5632 5625 5643 5656 5662 5665 5672 5678 5688 5692
5488 5479 5468 5457 5441 5425 5419 5415 5412 5411 5408 5408 5408 5407 5410 5437 5446 5456 5472 5495 5514 5532 5543 5549 5556 5558 5562 5577 5575 5571 5572 5559 5593 5602 5615 5623 5616 5634 5649 5650 5657 5662 5667 5674 5683
5489 5478 5467 5455 5442 5425 5420 5417 5415 5412 5411 5409 5408 5408 5418 5440 5449 5460 5475 5490 5508 5523 5535 5547 5548 5554 5556 5556 5553 5559 5555 5564 5586 5605 5611 5614 5612 5631 5640 5643 5647 5653 5659 5665 5671
5488 5478 5468 5459 5443 5426 5419 5419 5417 5414 5412 5412 5414 5412 5427 5436 5451 5465 5471 5484 5505 5526 5529 5533 5540 5539 5547 5549 5556 5562 5567 5576 5583 5598 5607 5603 5607 5622 5632 5636 5641 5645 5652 5658 5666
5491 5480 5474 5467 5452 5441 5430 5421 5414 5413 5416 5408 5413 5423 5432 5439 5456 5470 5476 5488 5506 5525 5529 5533 5535 5548 5556 5556 5563 5565 5565 5567 5580 5596 5595 5602 5602 5611 5624 5634 5636 5640 5646 5653 5662
5494 5487 5479 5476 5467 5458 5449 5431 5416 5411 5412 5428 5431 5437 5440 5437 5456 5474 5477 5500 5522 5522 5529 5528 5532 5546 5552 5555 5557 5563 5560 5564 5577 5585 5590 5594 5596 5607 5616 5625 5634 5637 5639 5646 5655
5500 5494 5487 5482 5478 5472 5460 5445 5434 5428 5422 5438 5439 5441 5440 5448 5453 5469 5484 5508 5520 5523 5528 5532 5539 5547 5554 5555 5555 5561 5559 5561 5566 5578 5583 5588 5585 5598 5613 5625 5632 5637 5640 5644 5649
5505 5500 5496 5488 5482 5480 5471 5464 5455 5446 5435 5452 5453 5456 5455 5462 5473 5481 5491 5508 5513 5522 5531 5531 5546 5547 5549 5553 5558 5553 5569 5569 5567 5562 5557 5582 5563 5589 5605 5611 5620 5627 5630 5635 5638
5509 5507 5502 5496 5487 5487 5483 5479 5470 5461 5458 5467 5462 5463 5464 5470 5481 5497 5495 5505 5521 5521 5531 5526 5535 5539 5544 5551 5556 5554 5564 5562 5563 5557 5560 5567 5554 5590 5599 5602 5612 5619 5623 5625 5629
5513 5515 5511 5507 5498 5497 5492 5491 5480 5456 5474 5470 5466 5467 5469 5470 5491 5495 5506 5514 5527 5523 5523 5518 5525 5530 5538 5544 5549 5558 5551 5548 5548 5545 5531 5563 5557 5581 5591 5614 5609 5613 5617 5621 5625
5522 5521 5517 5515 5507 5504 5500 5496 5487 5469 5480 5490 5494 5503 5506 5501 5501 5514 5519 5519 5523 5518 5512 5509 5506 5520 5527 5537 5542 5547 5541 5502 5503 5501 5528 5560 5554 5585 5604 5609 5614 5610 5610 5613 5617
5527 5528 5525 5519 5516 5509 5505 5499 5485 5504 5488 5504 5514 5517 5514 5510 5500 5504 5522 5520 5524 5519 5502 5506 5514 5516 5517 5528 5531 5541 5539 5517 5517 5513 5536 5554 5555 5581 5601 5609 5612 5612 5609 5607 5611
5529 5527 5528 5525 5521 5516 5508 5495 5483 5488 5498 5516 5526 5526 5525 5524 5514 5516 5518 5522 5528 5533 5526 5518 5507 5509 5517 5526 5532 5531 5519 5542 5526 5539 5509 5546 5566 5583 5590 5593 5600 5600 5600 5601 5603
5523 5519 5525 5528 5520 5514 5510 5515 5518 5514 5526 5532 5530 5537 5531 5530 5527 5527 5525 5529 5531 5535 5538 5527 5516 5509 5516 5525 5529 5533 5539 5527 5495 5513 5534 5544 5559 5569 5575 5581 5589 5592 5592 5593 5595
5517 5519 5518 5521 5518 5513 5509 5498 5528 5531 5533 5530 5531 5539 5540 5540 5539 5538 5532 5536 5539 5538 5541 5536 5524 5513 5513 5518 5529 5529 5528 5533 5530 5506 5516 5538 5553 5581 5583 5581 5582 5585 5588 5588 5590
5509 5503 5515 5514 5511 5499 5492 5517 5532 5535 5535 5533 5535 5537 5539 5544 5542 5538 5532 5535 5545 5545 5539 5540 5520 5512 5518 5528 5529 5530 5534 5535 5520 5530 5511 5506 5543 5575 5576 5576 5577 5579 5583 5584 5583
5497 5502 5509 5509 5500 5501 5527 5531 5530 5532 5535 5536 5536 5538 5539 5541 5534 5538 5532 5536 5539 5538 5537 5537 5519 5501 5508 5515 5524 5515 5531 5536 5530 5523 5526 5529 5541 5569 5568 5568 5573 5575 5575 5577 5574
5493 5485 5490 5501 5508 5516 5516 5525 5525 5528 5530 5534 5535 5537 5538 5536 5540 5532 5529 5534 5537 5537 5539 5540 5523 5515 5520 5533 5531 5522 5534 5533 5519 5495 5532 5525 5548 5558 5560 5563 5567 5569 5570 5569 5566
5478 5483 5482 5467 5498 5498 5507 5521 5524 5524 5526 5530 5530 5531 5530 5531 5533 5530 5528 5527 5532 5533 5534 5530 5494 5481 5523 5529 5518 5524 5532 5532 5521 5535 5519 5546 5543 5554 5558 5562 5564 5566 5565 5563 5559
5465 5458 5465 5464 5479 5495 5506 5512 5518 5523 5524 5524 5523 5527 5533 5530 5533 5529 5530 5526 5526 5526 5529 5519 5486 5488 5520 5525 5519 5506 5524 5531 5533 5534 5537 5537 5538 5561 5561 5562 5562 5562 5560 5560 5556
5457 5453 5459 5468 5481 5487 5492 5500 5506 5508 5522 5523 5521 5519 5525 5526 5529 5532 5530 5531 5531 5525 5518 5514 5488 5473 5477 5515 5509 5504 5529 5531 5537 5541 5545 5530 5556 5557 5561 5560 5558 5556 5556 5555 5549